Regional Weather Roundup
Issued by NWS Goodland, KS

Home | Current Version | Previous Version | Graphics & Text | Print | Product List | Glossary On
Versions: 1 2 3 4 5 6 7 8 9 10 11 12 13 14 15 16 17 18 19 20 21 22 23 24 25 26 27 28 29 30 31 32 33 34 35 36 37 38 39 40 41 42 43 44 45 46 47 48 49 50
000
ASUS43 KGLD 161259
RWRGLD

GOODLAND FORECAST AREA HOURLY WEATHER ROUNDUP
NATIONAL WEATHER SERVICE GOODLAND KS
700 AM MDT TUE SEP 16 2014

...OFFICIAL OBSERVATIONS...

CITY           SKY/WX    TMP DP  RH WIND       PRES   REMARKS
GOODLAND KS    CLOUDY    58  53  84 SW12      30.18S
HILL CITY KS   CLOUDY    52  48  86 NE3       30.22S
IMPERIAL NEB   MOCLDY    52  50  93 E7        30.15F
MCCOOK NEB     CLOUDY    51  47  86 SE9       30.19F
AKRON CO       CLEAR     53  50  89 SW10      30.14S
BURLINGTON CO  CLOUDY    57  51  80 SW17G25   30.19S
LIMON CO       CLOUDY    51  50  96 S8        30.23S
$$

...UNOFFICIAL OBSERVATIONS...

CITY           SKY/WX    TMP DP  RH WIND       PRES   REMARKS
COLBY KS       CLOUDY    55  55 100 SE10      30.19F
GOVE KS          N/A     52  32  46 MISG        N/A
NORTON KS      CLOUDY    50  45  81 SE8       30.21R
SHARON SPRINGS   N/A     58  55  90 S8          N/A
WAKEENEY KS      N/A     52  51  94 MISG        N/A
TRENTON NEB      N/A     49  32  52 SE12        N/A
YUMA CO          N/A     53  52  96 S6          N/A
$$


USA.gov is the U.S. government's official web portal to all federal, state and local government web resources and services.